RH
19 19 18 17 17 18 21 19 17 16 15 17 17 19 20 26 34 22 32 32 41 39 38 57 50 62 48 46 60 58 44 34 25 21 11 5 3 3 2 3 3 3 4
21 22 20 19 18 19 17 15 15 15 16 20 23 22 30 33 23 34 33 38 42 43 51 54 64 46 50 60 66 57 44 35 29 26 20 7 4 3 3 3 4 4 5
26 23 20 20 18 16 16 16 17 20 23 26 28 30 30 26 34 37 34 37 45 48 46 59 57 64 84 76 86 76 74 63 44 27 28 17 6 4 4 3 4 5 6
27 26 22 19 16 18 22 22 22 22 21 23 29 25 31 35 38 40 44 47 46 52 66 66 68 60 63 68 78 66 59 78 54 33 27 29 19 7 5 4 6 6 7
23 18 20 22 26 26 23 15 12 15 21 24 26 34 34 45 61 73 66 56 49 56 74 74 70 65 63 76 81 88 85 90 60 44 31 29 30 23 11 8 9 13 12
20 26 30 28 27 28 22 14 16 21 29 33 31 36 45 69 84 91 84 94 84 72 64 80 93 89 64 63 85 81 97 94 74 46 36 29 32 32 34 26 20 19 21
30 28 28 30 29 30 27 25 27 27 27 32 38 47 60 52 62 59 89 99 70 59 83 92 69 68 71 83 67 72 99 86 56 53 50 41 38 37 34 35 44 45 47
29 24 21 22 24 21 19 20 25 32 36 39 43 73 74 76 97 92 96 85 52 71 76 84 69 81 81 90 92 84 76 62 56 61 56 53 52 50 47 39 38 45 48
17 19 21 24 26 28 31 36 37 40 49 62 66 80 100 100 100 63 52 47 49 64 64 91 75 86 92 100 94 87 77 59 52 61 92 95 84 71 63 63 56 41 49
23 32 66 79 74 60 58 54 42 48 78 95 100 100 100 76 67 67 48 53 59 60 74 81 78 79 97 100 92 76 59 68 65 57 62 76 89 97 100 97 92 91 83
32 64 76 80 86 97 92 92 85 92 99 100 90 89 87 90 75 68 52 46 52 56 84 87 81 92 100 100 98 88 64 58 56 56 62 57 64 71 66 74 86 100 95
53 58 64 64 72 75 100 100 100 100 100 99 89 70 60 53 51 52 49 45 56 62 91 86 90 86 95 93 93 92 89 69 50 48 47 44 48 46 50 48 50 59 78
61 76 90 91 89 85 75 82 86 80 64 59 66 59 54 48 52 48 49 52 56 67 82 85 100 85 74 65 62 63 61 60 55 58 51 45 41 44 44 45 40 47 46
52 49 48 51 59 52 47 48 54 56 69 65 55 53 59 72 81 91 91 96 96 98 100 87 61 66 69 61 56 55 57 55 42 35 40 40 43 44 44 42 48 46 55
48 53 52 57 59 61 64 70 79 76 75 84 95 83 79 84 80 77 91 79 74 78 74 59 54 52 59 58 55 50 49 54 51 49 46 46 55 64 69 85 83 77 77
47 58 59 56 61 60 51 52 66 74 63 66 97 97 89 93 95 89 69 49 46 48 46 46 47 48 48 48 55 67 75 72 82 85 69 68 68 68 80 68 83 71 80
74 76 78 78 71 61 65 60 58 62 66 70 59 64 58 54 53 61 63 58 55 54 52 54 61 58 54 58 56 52 53 56 54 48 43 46 59 67 81 77 69 67 64
59 64 71 72 67 67 68 66 60 57 52 48 46 44 46 48 47 45 50 53 53 54 51 49 48 48 45 48 51 50 50 54 53 49 49 51 57 65 66 66 70 76 78
84 84 80 76 74 76 79 75 72 70 65 58 56 54 52 54 55 55 54 54 48 46 57 60 52 55 53 52 56 65 64 60 58 52 49 56 61 56 58 69 84 87 87
46 42 40 40 43 50 52 51 51 50 46 49 55 60 66 64 53 49 44 45 51 61 67 72 73 84 57 47 50 65 87 78 67 63 68 70 71 78 71 65 58 68 66
44 42 41 41 43 41 46 49 54 57 56 52 50 49 50 52 53 55 56 62 69 79 89 92 83 72 73 61 50 49 53 58 55 58 67 72 70 70 69 77 53 37 31
62 65 58 61 69 70 73 72 64 67 76 77 85 87 89 74 68 75 81 83 94 98 97 97 98 90 70 57 58 58 54 53 55 56 52 49 48 48 42 30 22 20 20
100 99 98 88 78 82 68 55 63 72 79 84 90 89 98 100 100 98 86 78 77 78 74 65 69 92 92 74 51 46 42 40 42 37 34 30 25 22 21 17 17 17 17
100 96 83 73 76 80 82 85 90 99 100 100 100 100 99 98 95 94 78 48 43 39 36 35 34 33 37 43 31 26 24 22 22 18 18 19 16 16 16 15 13 13 14
89 87 88 95 100 100 100 100 100 100 100 100 100 95 80 56 50 43 36 33 28 24 23 20 17 17 20 22 21 19 18 16 16 15 16 16 16 14 12 13 12 11 12
99 100 99 100 100 100 100 100 92 43 32 29 27 28 28 27 26 24 23 16 12 12 12 13 13 14 14 15 15 15 14 14 12 11 12 12 12 12 12 13 13 12 12
Wind_Speed
67 68 69 67 66 67 68 70 72 72 72 72 70 65 60 49 49 41 23 15 10 9 6 5 3 7 14 20 28 34 40 46 47 50 54 48 41 33 34 38 37 40 46
65 64 64 62 63 67 70 72 73 73 72 68 62 55 45 47 35 20 16 12 11 8 9 5 6 11 14 20 26 34 41 46 48 51 52 48 32 26 22 27 30 35 38
62 61 60 63 66 69 70 70 70 68 64 58 51 45 45 28 18 17 14 11 10 7 4 3 6 10 18 23 30 36 41 47 51 48 51 47 35 24 17 15 16 23 32
61 61 62 64 65 62 59 61 67 66 63 57 49 39 21 18 18 16 14 11 10 8 3 1 5 13 17 23 30 35 40 45 49 51 47 48 41 26 13 5 6 13 23
59 60 59 56 52 52 52 56 49 42 33 27 20 18 17 21 19 15 13 8 11 8 5 7 11 14 17 23 29 33 38 41 45 49 49 44 45 37 22 11 16 8 14
55 49 47 48 44 43 41 29 18 11 10 13 16 18 23 20 13 12 9 11 13 11 8 12 15 16 19 23 28 30 37 38 43 47 49 48 42 40 34 26 19 10 9
48 46 40 38 36 34 26 17 10 9 11 14 19 20 17 15 13 12 10 14 14 12 13 14 15 18 20 23 26 30 33 36 40 44 46 45 45 42 36 32 30 27 20
34 34 29 24 21 18 13 7 7 11 15 17 17 11 11 10 11 16 17 17 16 17 17 16 18 19 22 24 28 31 34 37 37 41 44 43 41 40 39 35 29 25 19
19 15 12 9 7 5 5 9 13 14 12 13 15 16 16 14 17 20 22 22 20 19 19 21 22 24 26 28 31 34 37 37 37 37 35 38 38 38 34 34 34 31 28
7 5 10 8 6 6 7 7 9 8 9 11 15 14 17 22 24 25 25 25 27 26 25 25 28 32 28 32 34 37 39 40 41 41 37 31 35 38 39 36 34 36 34
7 12 10 5 5 8 9 9 10 13 16 19 20 23 25 28 30 32 32 31 32 32 32 29 31 35 35 35 39 42 44 45 46 45 46 45 40 35 39 40 39 37 36
6 8 11 13 13 14 14 17 20 22 24 28 31 33 31 31 32 34 36 37 37 39 36 36 39 39 40 42 44 45 48 50 52 52 52 49 51 47 46 44 45 45 41
17 18 20 20 21 23 24 26 28 31 32 32 33 35 36 36 37 40 41 40 40 42 43 46 52 54 51 51 51 54 54 56 59 58 55 56 57 55 54 54 55 53 52
24 22 23 26 28 29 30 32 33 33 35 36 36 36 37 44 43 44 45 48 51 52 51 58 58 58 59 61 59 60 62 63 66 65 63 64 64 63 60 61 61 60 59
29 32 34 36 37 39 40 43 44 46 48 48 47 49 52 52 52 54 55 56 56 59 62 63 65 66 67 68 68 69 69 71 70 69 68 70 70 69 68 68 68 70 69
40 41 43 45 45 46 48 48 50 53 53 54 56 57 59 60 61 62 63 64 65 67 68 69 70 71 70 71 73 75 74 75 74 75 75 75 75 75 77 75 75 75 75
52 53 54 53 54 54 56 56 58 60 60 59 60 64 66 67 67 67 67 69 70 72 73 73 74 76 77 78 80 81 81 83 83 83 81 80 79 80 81 81 82 82 83
58 59 61 62 62 63 64 66 66 66 67 69 69 70 72 73 74 74 74 75 76 76 78 80 81 83 83 84 87 88 89 90 89 88 87 86 86 86 85 86 89 90 89
66 68 68 68 69 70 72 73 74 74 75 76 78 78 79 81 81 82 82 83 84 87 88 87 87 89 90 90 92 93 94 94 95 95 96 95 95 97 96 97 98 99 101
72 73 74 74 74 75 75 75 78 80 82 83 86 87 89 90 91 91 93 95 95 97 98 99 99 99 97 98 99 98 99 100 101 103 103 103 104 105 106 106 107 107 108
82 82 81 82 82 84 85 87 86 89 92 94 95 95 96 97 98 99 101 103 105 106 107 107 109 109 108 111 110 108 106 107 108 109 110 110 110 111 113 114 112 110 108
88 88 87 89 94 95 94 95 96 97 97 97 103 106 107 107 108 109 111 110 110 112 114 115 119 122 120 119 119 118 117 115 114 115 116 117 116 115 115 112 106 103 100
96 97 98 100 101 104 103 103 104 104 107 109 111 112 114 117 120 122 122 123 124 123 124 124 125 127 130 129 126 124 123 120 118 118 118 117 115 113 108 105 102 97 96
105 106 106 106 108 112 114 116 116 116 117 118 121 123 124 128 129 129 129 128 126 125 125 127 127 125 127 131 124 121 121 118 114 110 108 108 105 103 102 101 96 93 90
114 115 115 115 117 120 122 124 126 128 129 130 131 132 132 130 129 129 127 125 126 124 121 121 118 117 116 119 117 114 112 110 107 103 101 100 98 96 92 91 90 86 83
121 122 122 122 123 127 128 131 133 126 123 121 119 120 120 118 118 118 115 115 113 112 114 114 111 108 107 105 107 107 105 104 102 98 95 94 94 93 88 85 82 77 75
Wind_Direction
284 282 282 283 282 282 283 281 281 282 283 286 288 291 292 293 293 289 271 256 234 238 248 249 317 352 356 6 3 358 358 354 351 346 330 322 313 292 273 261 255 246 238
283 283 283 282 282 281 281 282 283 283 283 286 288 289 289 290 282 254 243 213 214 219 225 255 328 349 2 3 2 2 360 358 0 2 353 335 327 314 281 257 248 241 234
286 284 283 282 281 283 285 285 284 283 283 283 285 286 286 270 241 222 203 204 214 215 239 335 359 351 356 1 3 2 0 2 1 7 11 356 347 339 310 267 245 237 229
281 281 281 282 286 287 288 288 285 283 281 278 278 276 246 222 204 191 183 193 209 216 244 313 339 357 351 356 358 357 358 2 1 5 13 19 8 355 330 268 191 213 219
276 279 285 287 288 290 292 292 286 280 276 268 245 224 204 183 180 180 191 204 223 242 268 299 319 319 340 349 352 351 353 355 358 1 7 19 28 22 28 82 113 166 223
286 286 286 288 287 291 297 292 279 257 225 211 201 187 180 181 183 198 211 233 245 254 275 299 310 323 336 337 342 345 348 348 352 354 359 5 17 35 43 40 48 62 167
285 285 286 286 285 287 280 274 257 226 194 174 168 175 184 193 206 217 239 262 255 248 276 295 308 318 321 331 334 338 344 342 346 350 353 357 2 9 20 40 50 55 57
286 285 282 284 282 268 261 245 183 164 158 164 170 183 196 206 228 241 253 260 251 255 274 285 301 311 320 325 332 333 332 335 341 345 347 351 354 359 1 4 14 19 27
279 272 279 258 236 220 186 152 152 150 159 180 195 215 223 248 252 258 266 260 260 260 275 279 293 301 312 320 326 327 327 332 335 340 349 350 354 354 353 354 352 349 350
269 166 143 128 117 138 148 156 173 186 210 227 235 244 251 251 259 267 273 264 264 267 272 288 294 297 301 306 310 315 319 322 326 328 331 336 336 338 339 340 339 340 338
156 176 177 183 210 226 220 231 241 245 251 260 264 262 256 261 268 272 271 266 266 267 278 287 290 295 298 300 302 307 311 314 315 317 318 318 319 319 321 322 322 323 324
208 228 234 240 243 249 253 251 255 267 268 268 268 272 278 280 277 276 277 273 275 275 281 284 287 293 293 294 298 298 301 304 305 307 309 311 313 314 314 312 313 314 310
231 241 251 253 257 263 267 267 268 269 272 276 280 281 279 280 279 281 279 277 276 280 279 289 293 291 291 293 292 293 293 297 300 301 303 307 308 308 310 313 313 312 306
268 272 270 271 273 270 269 277 275 277 283 282 280 277 274 287 285 287 288 284 286 282 281 289 288 286 288 290 293 295 293 295 299 301 301 304 306 306 307 308 308 307 307
267 275 276 278 276 274 274 277 281 278 280 280 278 278 280 281 283 283 285 285 284 282 283 285 284 284 285 287 290 294 295 297 298 299 299 300 300 301 302 303 303 302 302
278 278 276 276 277 277 276 275 277 278 276 279 277 279 279 280 280 280 279 281 281 282 282 284 286 286 287 289 290 292 294 294 294 294 293 295 295 297 298 297 298 296 296
280 278 278 277 277 276 275 276 277 276 275 275 275 275 278 280 280 281 282 283 284 284 284 283 284 284 286 287 288 289 289 290 290 289 291 292 293 294 294 294 295 295 293
279 280 281 281 281 280 280 280 281 282 281 280 280 281 283 284 284 284 284 285 286 288 287 287 286 286 286 287 288 289 289 289 290 289 289 290 291 290 290 291 291 290 291
280 280 281 281 280 280 281 281 281 281 280 280 281 281 283 283 283 282 282 282 282 285 285 286 286 287 285 287 288 288 288 286 286 287 286 287 288 290 290 291 290 289 290
279 280 280 280 280 280 281 282 284 284 283 283 282 281 280 280 280 280 281 281 282 282 285 284 285 286 283 285 286 285 284 284 285 285 286 286 286 286 287 289 288 286 286
282 282 282 282 282 283 283 284 284 285 285 284 285 284 283 282 282 282 283 282 282 281 280 281 282 282 282 283 285 285 284 285 284 282 283 283 283 284 284 285 286 285 285
283 283 284 284 285 285 285 284 284 284 284 284 282 283 285 285 285 285 284 282 281 280 280 280 280 281 281 281 282 282 282 282 282 282 282 282 281 281 283 284 285 286 287
280 281 282 284 284 284 284 285 285 287 287 286 285 285 284 284 284 285 285 284 283 281 280 279 279 279 280 281 281 281 281 280 280 280 282 282 282 283 284 285 285 284 283
278 280 281 283 284 285 285 284 284 284 285 285 284 282 282 283 282 281 281 280 279 279 278 277 277 278 278 279 280 281 281 280 280 280 281 281 281 280 280 282 282 281 281
278 280 281 282 284 285 285 285 284 283 283 282 281 281 281 281 280 279 280 280 281 281 280 281 280 279 278 278 279 280 281 281 281 280 280 281 281 281 282 283 282 281 279
279 280 282 283 283 285 285 284 284 283 282 280 280 280 279 279 279 280 279 281 280 280 281 280 280 279 279 278 279 280 279 279 280 281 280 279 280 280 281 280 281 281 279